User: anonymous
Location: Platte
(43.3870°N, 98.8440°W)
Time: 21:15:35
(UTC-05:00)
Language:

Landsat 7 - Orbit

View from above orbital plane
View from above orbital plane
View from above satellite
View from above satellite

Ground track
Ground track

The orbit data is extracted from the following two-line orbital elements,

1 25682U 99020A   14106.35373951  .00000002  00000-0  10470-4 0  1508
2 25682 098.2201 176.7729 0000782 077.1642 282.9617 14.57098594797987
Epoch (UTC): 16 April 2014 08:29:23
Eccentricity: 0.0000782
inclination: 98.2201°
perigee height: 702 km
apogee height: 703 km
right ascension of ascending node: 176.7729°
argument of perigee: 77.1642°
revolutions per day: 14.57098594
mean anomaly at epoch: 282.9617°
orbit number at epoch: 79798

The dashed part of the orbit path shows where the satellite is in the earth's shadow,  

DLR